Location: Sungai Laei
(2.6000°N, 113.7167°E)
Time: 05:02:14
(UTC+00:00)

Cosmos 2285 Rocket - Visible Passes

Search period start: 03 October 2022 00:00
Search period end: 13 October 2022 00:00
Orbit: 971 x 998 km, 74.0° (Epoch: 02 October)

Date Brightness Start Highest point End Pass type
(mag) Time Alt. Az. Time Alt. Az. Time Alt. Az.
03 Oct 6.4 12:47:33 10° NNW 12:47:45 11° NNW 12:47:45 11° NNW visible
04 Oct 5.6 11:30:34 10° NNE 11:32:10 16° NE 11:32:10 16° NE visible
04 Oct 6.6 13:16:52 10° NW 13:17:09 11° NW 13:17:09 11° NW visible
05 Oct 4.5 11:57:38 10° N 12:02:07 45° NNE 12:02:07 45° NNE visible
06 Oct 5.6 10:43:27 10° NE 10:45:39 12° ENE 10:47:51 10° E visible
06 Oct 4.6 12:26:00 10° NNW 12:32:12 54° WSW 12:33:26 47° SW visible
07 Oct 4.6 11:08:26 10° NNE 11:13:59 31° ENE 11:19:34 10° SE visible
07 Oct 6.1 12:55:44 10° NW 13:00:27 22° WSW 13:05:13 10° SSW visible
08 Oct 3.9 11:35:52 10° N 11:42:15 78° ENE 11:48:41 10° SSE visible
09 Oct 5.1 12:04:31 10° NNW 12:10:30 43° WSW 12:16:33 10° S visible
10 Oct 4.4 10:46:24 10° N 10:52:18 40° ENE 10:58:14 10° SE visible
10 Oct 6.5 12:34:49 10° WNW 12:38:46 17° WSW 12:42:45 10° SW visible
11 Oct 4.1 11:14:10 10° NNW 11:20:34 84° WSW 11:27:01 10° S visible
12 Oct 5.6 11:43:07 10° NW 11:48:49 34° WSW 11:54:32 10° SSW visible
